Terminal Aerodrome Forecast
Issued by NWS

Current Version | Previous Version | Graphics & Text | Print | Product List | Glossary On
Versions: 1 2 3 4 5 6 7 8 9 10 11 12 13 14 15 16 17 18 19 20 21 22 23 24 25 26
044
FTUS41 KILN 140252 AAB
TAFLCK
TAF AMD
KLCK 140252Z 1403/1424 18007KT P6SM VCSH SCT035 OVC045
     FM140500 27022G39KT P6SM OVC025
     FM140800 30014G24KT P6SM OVC015
     FM141200 33009KT P6SM BKN015
     FM141700 33006KT P6SM BKN025
     FM142300 VRB03KT P6SM BKN050=

USA.gov is the U.S. government's official web portal to all federal, state and local government web resources and services.